| time (UTC) | temp F | wind direction | speed MPH | gust MPH | rain 1hr in | rain 24hr in | rain mn in | humidity % | barometer mb |
| 20260905112124 | 63 | 72 | 2.0 | 2.0 | 0.00 | 0.00 | 0.00 | 99 | 1014.9 |
| 20260905111618 | 63 | 130 | 2.0 | 2.0 | 0.00 | 0.00 | 0.00 | 99 | 1014.9 |
| 20260905111117 | 63 | 58 | 3.0 | 3.0 | 0.00 | 0.00 | 0.00 | 99 | 1014.9 |
| 20260905110616 | 63 | 61 | 2.0 | 2.0 | 0.00 | 0.00 | 0.00 | 99 | 1014.9 |
| 20260905110112 | 64 | 34 | 1.0 | 1.0 | 0.00 | 0.00 | 0.00 | 99 | 1014.7 |
| 20260905105612 | 64 | 254 | 1.0 | 1.0 | 0.00 | 0.00 | 0.00 | 99 | 1014.6 |
| 20260905105111 | 64 | 206 | 1.0 | 1.0 | 0.00 | 0.00 | 0.00 | 99 | 1014.6 |
| 20260905104606 | 64 | 212 | 0.0 | 0.0 | 0.00 | 0.00 | 0.00 | 99 | 1014.5 |
| 20260905104101 | 64 | 207 | 0.0 | 0.0 | 0.00 | 0.00 | 0.00 | 99 | 1014.4 |
| 20260905103556 | 64 | 74 | 2.0 | 2.0 | 0.00 | 0.00 | 0.00 | 99 | 1014.7 |
| 20260905103053 | 63 | 200 | 0.0 | 1.0 | 0.00 | 0.00 | 0.00 | 99 | 1014.7 |
| 20260905102548 | 63 | 168 | 1.0 | 1.0 | 0.00 | 0.00 | 0.00 | 99 | 1014.6 |
| 20260905102044 | 63 | 170 | 1.0 | 1.0 | 0.00 | 0.00 | 0.00 | 99 | 1014.6 |
| 20260905101543 | 63 | 211 | 0.0 | 1.0 | 0.00 | 0.00 | 0.00 | 99 | 1014.8 |
| 20260905101041 | 64 | 217 | 0.0 | 0.0 | 0.00 | 0.00 | 0.00 | 99 | 1014.9 |
| 20260905100538 | 64 | 198 | 1.0 | 1.0 | 0.00 | 0.00 | 0.00 | 99 | 1014.6 |
| 20260905100037 | 64 | 252 | 1.0 | 1.0 | 0.00 | 0.00 | 0.00 | 99 | 1014.4 |
| 20260905095532 | 64 | 78 | 1.0 | 2.0 | 0.00 | 0.00 | 0.00 | 99 | 1014.1 |
| 20260905095027 | 64 | 138 | 0.0 | 1.0 | 0.00 | 0.00 | 0.00 | 99 | 1014.0 |
| 20260905094522 | 63 | 251 | 3.0 | 3.0 | 0.00 | 0.00 | 0.00 | 99 | 1013.8 |
| 20260905094021 | 63 | 224 | 1.0 | 1.0 | 0.00 | 0.00 | 0.00 | 99 | 1013.8 |
| 20260905093516 | 63 | 67 | 2.0 | 2.0 | 0.00 | 0.00 | 0.00 | 99 | 1013.8 |
| 20260905093012 | 63 | 105 | 1.0 | 1.0 | 0.00 | 0.00 | 0.00 | 99 | 1013.8 |
| 20260905092507 | 63 | 259 | 1.0 | 1.0 | 0.00 | 0.00 | 0.00 | 99 | 1013.7 |
| 20260905092003 | 64 | 30 | 1.0 | 2.0 | 0.00 | 0.00 | 0.00 | 99 | 1013.9 |
| 20260905091502 | 64 | 34 | 4.0 | 5.0 | 0.00 | 0.00 | 0.00 | 99 | 1013.8 |
| 20260905090956 | 63 | 50 | 3.0 | 5.0 | 0.00 | 0.00 | 0.00 | 99 | 1013.9 |
| 20260905090451 | 64 | 49 | 2.0 | 2.0 | 0.00 | 0.00 | 0.00 | 99 | 1014.2 |
| 20260905085950 | 64 | 46 | 3.0 | 3.0 | 0.00 | 0.00 | 0.00 | 99 | 1014.2 |
| 20260905085449 | 64 | 4 | 2.0 | 2.0 | 0.00 | 0.00 | 0.00 | 99 | 1014.3 |
| 20260905084945 | 64 | 102 | 4.0 | 5.0 | 0.00 | 0.00 | 0.00 | 99 | 1014.3 |
| 20260905084445 | 64 | 106 | 1.0 | 1.0 | 0.00 | 0.00 | 0.00 | 99 | 1014.3 |
| 20260905083939 | 64 | 351 | 1.0 | 2.0 | 0.00 | 0.00 | 0.00 | 99 | 1014.3 |
| 20260905083435 | 64 | 33 | 1.0 | 2.0 | 0.00 | 0.00 | 0.00 | 99 | 1014.4 |
| 20260905082931 | 64 | 33 | 2.0 | 3.0 | 0.00 | 0.00 | 0.00 | 99 | 1014.6 |
| 20260905082427 | 64 | 32 | 2.0 | 2.0 | 0.00 | 0.00 | 0.00 | 98 | 1014.5 |
| 20260905081922 | 64 | 162 | 1.0 | 1.0 | 0.00 | 0.00 | 0.00 | 98 | 1014.7 |
| 20260905081417 | 64 | 186 | 0.0 | 0.0 | 0.00 | 0.00 | 0.00 | 98 | 1014.7 |
| 20260905080915 | 64 | 37 | 1.0 | 1.0 | 0.00 | 0.00 | 0.00 | 98 | 1014.8 |
| 20260905080410 | 64 | 29 | 3.0 | 5.0 | 0.00 | 0.00 | 0.00 | 98 | 1014.8 |
| 20260905075909 | 64 | 66 | 2.0 | 2.0 | 0.00 | 0.00 | 0.00 | 98 | 1014.8 |
| 20260905075403 | 64 | 324 | 1.0 | 1.0 | 0.00 | 0.00 | 0.00 | 98 | 1014.6 |
| 20260905074902 | 64 | 205 | 0.0 | 0.0 | 0.00 | 0.00 | 0.00 | 98 | 1014.5 |
| 20260905074358 | 64 | 38 | 1.0 | 2.0 | 0.00 | 0.00 | 0.00 | 98 | 1014.6 |
| 20260905073854 | 64 | 207 | 0.0 | 0.0 | 0.00 | 0.00 | 0.00 | 98 | 1014.5 |
| 20260905073349 | 64 | 262 | 2.0 | 2.0 | 0.00 | 0.00 | 0.00 | 98 | 1014.5 |
| 20260905072844 | 64 | 29 | 1.0 | 2.0 | 0.00 | 0.00 | 0.00 | 98 | 1014.6 |
| 20260905072338 | 64 | 47 | 3.0 | 3.0 | 0.00 | 0.00 | 0.00 | 98 | 1014.6 |
| 20260905071835 | 64 | 88 | 1.0 | 1.0 | 0.00 | 0.00 | 0.00 | 98 | 1014.4 |
| 20260905071331 | 64 | 247 | 1.0 | 1.0 | 0.00 | 0.00 | 0.00 | 97 | 1014.5 |
| 20260905070825 | 64 | 346 | 2.0 | 2.0 | 0.00 | 0.00 | 0.00 | 97 | 1014.6 |
| 20260905070322 | 64 | 82 | 3.0 | 3.0 | 0.00 | 0.00 | 0.00 | 97 | 1014.5 |
| 20260905065821 | 64 | 46 | 2.0 | 2.0 | 0.00 | 0.00 | 0.00 | 97 | 1014.4 |
| 20260905065319 | 64 | 9 | 2.0 | 2.0 | 0.00 | 0.00 | 0.00 | 97 | 1014.5 |
| 20260905064815 | 64 | 42 | 4.0 | 6.0 | 0.00 | 0.00 | 0.00 | 97 | 1014.5 |
| 20260905064311 | 64 | 61 | 2.0 | 2.0 | 0.00 | 0.00 | 0.00 | 97 | 1014.5 |
| 20260905063809 | 64 | 135 | 1.0 | 1.0 | 0.00 | 0.00 | 0.00 | 97 | 1014.4 |
| 20260905063305 | 64 | 202 | 1.0 | 1.0 | 0.00 | 0.00 | 0.00 | 97 | 1014.3 |
| 20260905062801 | 64 | 212 | 1.0 | 1.0 | 0.00 | 0.00 | 0.00 | 97 | 1014.4 |
| 20260905062255 | 64 | 74 | 3.0 | 3.0 | 0.00 | 0.00 | 0.00 | 97 | 1014.5 |
| 20260905061749 | 64 | 213 | 0.0 | 1.0 | 0.00 | 0.00 | 0.00 | 97 | 1014.5 |
| 20260905061244 | 64 | 81 | 1.0 | 1.0 | 0.00 | 0.00 | 0.00 | 96 | 1014.6 |
| 20260905060738 | 64 | 184 | 1.0 | 2.0 | 0.00 | 0.00 | 0.00 | 96 | 1014.6 |
| 20260905060236 | 64 | 33 | 2.0 | 2.0 | 0.00 | 0.00 | 0.00 | 96 | 1014.7 |
| 20260905055733 | 64 | 353 | 3.0 | 5.0 | 0.00 | 0.00 | 0.00 | 96 | 1014.7 |
| 20260905055229 | 64 | 141 | 1.0 | 1.0 | 0.00 | 0.00 | 0.00 | 96 | 1014.6 |
| 20260905054724 | 64 | 53 | 1.0 | 2.0 | 0.00 | 0.00 | 0.00 | 96 | 1014.4 |
| 20260905054221 | 64 | 34 | 3.0 | 3.0 | 0.00 | 0.00 | 0.00 | 96 | 1014.5 |
| 20260905053719 | 64 | 216 | 1.0 | 1.0 | 0.00 | 0.00 | 0.00 | 96 | 1014.5 |
| 20260905053215 | 64 | 276 | 3.0 | 3.0 | 0.00 | 0.00 | 0.00 | 96 | 1014.4 |
| 20260905052709 | 64 | 17 | 4.0 | 6.0 | 0.00 | 0.00 | 0.00 | 96 | 1014.3 |
| 20260905052204 | 64 | 44 | 3.0 | 3.0 | 0.00 | 0.00 | 0.00 | 96 | 1014.3 |
| 20260905051704 | 64 | 135 | 1.0 | 1.0 | 0.00 | 0.00 | 0.00 | 95 | 1014.2 |
| 20260905051201 | 64 | 49 | 4.0 | 5.0 | 0.00 | 0.00 | 0.00 | 95 | 1014.2 |
| 20260905050657 | 64 | 359 | 3.0 | 3.0 | 0.00 | 0.00 | 0.00 | 95 | 1014.0 |
| 20260905050153 | 64 | 159 | 1.0 | 2.0 | 0.00 | 0.00 | 0.00 | 95 | 1014.1 |
| 20260905045653 | 64 | 342 | 2.0 | 3.0 | 0.00 | 0.00 | 0.00 | 94 | 1014.3 |
| 20260905045148 | 64 | 301 | 1.0 | 1.0 | 0.00 | 0.00 | 0.00 | 94 | 1014.1 |
| 20260905044643 | 65 | 53 | 2.0 | 2.0 | 0.00 | 0.00 | 0.00 | 94 | 1013.9 |
| 20260905044137 | 65 | 36 | 2.0 | 3.0 | 0.00 | 0.00 | 0.00 | 94 | 1014.2 |
| 20260905043636 | 65 | 189 | 1.0 | 1.0 | 0.00 | 0.00 | 0.00 | 93 | 1014.2 |
| 20260905043132 | 65 | 217 | 0.0 | 0.0 | 0.00 | 0.00 | 0.00 | 93 | 1013.8 |
| 20260905042631 | 65 | 229 | 1.0 | 1.0 | 0.00 | 0.00 | 0.00 | 93 | 1014.0 |
| 20260905042126 | 66 | 170 | 0.0 | 1.0 | 0.00 | 0.00 | 0.00 | 93 | 1014.1 |
| 20260905041621 | 66 | 293 | 1.0 | 2.0 | 0.00 | 0.00 | 0.00 | 93 | 1014.3 |
| 20260905041116 | 66 | 221 | 1.0 | 1.0 | 0.00 | 0.00 | 0.00 | 92 | 1014.1 |
| 20260905040611 | 66 | 96 | 2.0 | 2.0 | 0.00 | 0.00 | 0.00 | 92 | 1014.2 |
| 20260905040109 | 66 | 296 | 2.0 | 2.0 | 0.00 | 0.00 | 0.00 | 91 | 1014.1 |
| 20260905035605 | 67 | 226 | 0.0 | 1.0 | 0.00 | 0.00 | 0.00 | 91 | 1014.2 |
| 20260905035101 | 67 | 48 | 2.0 | 3.0 | 0.00 | 0.00 | 0.00 | 91 | 1014.3 |
| 20260905034557 | 67 | 31 | 4.0 | 5.0 | 0.00 | 0.00 | 0.00 | 91 | 1014.2 |
| 20260905034050 | 67 | 293 | 1.0 | 2.0 | 0.00 | 0.00 | 0.00 | 91 | 1014.0 |
| 20260905033545 | 67 | 307 | 2.0 | 2.0 | 0.00 | 0.00 | 0.00 | 90 | 1013.8 |
| 20260905033041 | 67 | 29 | 1.0 | 2.0 | 0.00 | 0.00 | 0.00 | 90 | 1014.1 |
| 20260905032541 | 68 | 17 | 1.0 | 1.0 | 0.00 | 0.00 | 0.00 | 90 | 1013.8 |
| 20260905032036 | 68 | 111 | 2.0 | 2.0 | 0.00 | 0.00 | 0.00 | 90 | 1013.9 |
| 20260905031532 | 68 | 49 | 1.0 | 2.0 | 0.00 | 0.00 | 0.00 | 89 | 1013.9 |
| 20260905031032 | 68 | 44 | 2.0 | 2.0 | 0.00 | 0.00 | 0.00 | 89 | 1013.8 |
| 20260905030526 | 69 | 19 | 1.0 | 1.0 | 0.00 | 0.00 | 0.00 | 88 | 1013.7 |
| 20260905030027 | 69 | 53 | 3.0 | 5.0 | 0.00 | 0.00 | 0.00 | 88 | 1013.9 |
| 20260905025522 | 69 | 42 | 3.0 | 3.0 | 0.00 | 0.00 | 0.00 | 88 | 1013.9 |
| 20260905025018 | 69 | 342 | 4.0 | 6.0 | 0.00 | 0.00 | 0.00 | 88 | 1013.6 |
| 20260905024513 | 70 | 354 | 2.0 | 2.0 | 0.00 | 0.00 | 0.00 | 87 | 1013.7 |
| 20260905024008 | 70 | 37 | 3.0 | 3.0 | 0.00 | 0.00 | 0.00 | 87 | 1013.5 |
| 20260905023508 | 70 | 307 | 1.0 | 2.0 | 0.00 | 0.00 | 0.00 | 87 | 1013.6 |
| 20260905023003 | 70 | 45 | 3.0 | 3.0 | 0.00 | 0.00 | 0.00 | 86 | 1013.6 |
| 20260905022457 | 71 | 65 | 3.0 | 5.0 | 0.00 | 0.00 | 0.00 | 86 | 1013.1 |
| 20260905021953 | 71 | 55 | 1.0 | 2.0 | 0.00 | 0.00 | 0.00 | 86 | 1013.4 |
| 20260905021452 | 72 | 63 | 2.0 | 2.0 | 0.00 | 0.00 | 0.00 | 85 | 1013.0 |
| 20260905020947 | 72 | 248 | 1.0 | 1.0 | 0.00 | 0.00 | 0.00 | 85 | 1013.0 |
| 20260905020447 | 72 | 52 | 3.0 | 3.0 | 0.00 | 0.00 | 0.00 | 85 | 1013.1 |
| 20260905015942 | 73 | 118 | 1.0 | 1.0 | 0.00 | 0.00 | 0.00 | 85 | 1013.1 |
| 20260905015440 | 73 | 236 | 0.0 | 1.0 | 0.00 | 0.00 | 0.00 | 84 | 1012.9 |
| 20260905014939 | 73 | 76 | 2.0 | 2.0 | 0.00 | 0.00 | 0.00 | 84 | 1012.8 |
| 20260905014435 | 73 | 279 | 1.0 | 1.0 | 0.00 | 0.00 | 0.00 | 83 | 1012.9 |
| 20260905013930 | 74 | 198 | 0.0 | 1.0 | 0.00 | 0.00 | 0.00 | 83 | 1013.0 |
| 20260905013427 | 75 | 257 | 1.0 | 2.0 | 0.00 | 0.00 | 0.00 | 82 | 1012.7 |
| 20260905012921 | 75 | 38 | 2.0 | 3.0 | 0.00 | 0.00 | 0.00 | 82 | 1012.9 |
| 20260905012417 | 75 | 298 | 3.0 | 3.0 | 0.00 | 0.00 | 0.00 | 82 | 1012.5 |
| 20260905011914 | 75 | 239 | 1.0 | 1.0 | 0.00 | 0.00 | 0.00 | 82 | 1012.6 |
| 20260905011409 | 75 | 94 | 1.0 | 1.0 | 0.00 | 0.00 | 0.00 | 82 | 1012.5 |
| 20260905010904 | 76 | 181 | 1.0 | 1.0 | 0.00 | 0.00 | 0.00 | 82 | 1012.4 |
| 20260905010359 | 76 | 140 | 1.0 | 1.0 | 0.00 | 0.00 | 0.00 | 81 | 1012.3 |
| 20260905005855 | 76 | 218 | 0.0 | 0.0 | 0.00 | 0.00 | 0.00 | 81 | 1012.4 |
| 20260905005351 | 76 | 201 | 0.0 | 0.0 | 0.00 | 0.00 | 0.00 | 81 | 1012.3 |
| 20260905004845 | 77 | 205 | 0.0 | 0.0 | 0.00 | 0.00 | 0.00 | 80 | 1012.5 |
| 20260905004340 | 77 | 212 | 0.0 | 0.0 | 0.00 | 0.00 | 0.00 | 79 | 1012.1 |
| 20260905003835 | 78 | 210 | 0.0 | 0.0 | 0.00 | 0.00 | 0.00 | 78 | 1012.2 |
| 20260905003331 | 78 | 223 | 0.0 | 1.0 | 0.00 | 0.00 | 0.00 | 78 | 1012.2 |
| 20260905002827 | 78 | 201 | 0.0 | 1.0 | 0.00 | 0.00 | 0.00 | 77 | 1012.2 |
| 20260905002326 | 78 | 169 | 0.0 | 1.0 | 0.00 | 0.00 | 0.00 | 77 | 1012.3 |
| 20260905001821 | 79 | 63 | 2.0 | 2.0 | 0.00 | 0.00 | 0.00 | 76 | 1012.1 |
| 20260905001321 | 79 | 168 | 1.0 | 1.0 | 0.00 | 0.00 | 0.00 | 76 | 1012.2 |
| 20260905000816 | 79 | 52 | 1.0 | 2.0 | 0.00 | 0.00 | 0.00 | 76 | 1012.0 |
| 20260905000312 | 80 | 327 | 1.0 | 1.0 | 0.00 | 0.00 | 0.00 | 75 | 1012.0 |
| 20260904235807 | 80 | 171 | 1.0 | 1.0 | 0.00 | 0.00 | 0.00 | 75 | 1012.0 |
| 20260904235305 | 80 | 110 | 1.0 | 1.0 | 0.00 | 0.00 | 0.00 | 75 | 1011.7 |
| 20260904234757 | 81 | 46 | 3.0 | 3.0 | 0.00 | 0.00 | 0.00 | 74 | 1011.6 |
| 20260904234252 | 81 | 331 | 2.0 | 2.0 | 0.00 | 0.00 | 0.00 | 73 | 1011.7 |
| 20260904233747 | 81 | 354 | 1.0 | 2.0 | 0.00 | 0.00 | 0.00 | 73 | 1011.7 |
| 20260904233244 | 81 | 37 | 3.0 | 3.0 | 0.00 | 0.00 | 0.00 | 72 | 1011.8 |
| 20260904232740 | 82 | 190 | 1.0 | 1.0 | 0.00 | 0.00 | 0.00 | 73 | 1011.6 |
| 20260904232236 | 82 | 265 | 1.0 | 1.0 | 0.00 | 0.00 | 0.00 | 73 | 1011.7 |
| 20260904231731 | 82 | 185 | 1.0 | 1.0 | 0.00 | 0.00 | 0.00 | 73 | 1011.6 |
| 20260904231227 | 82 | 4 | 2.0 | 2.0 | 0.00 | 0.00 | 0.00 | 73 | 1011.4 |
| 20260904230726 | 82 | 310 | 1.0 | 2.0 | 0.00 | 0.00 | 0.00 | 71 | 1011.5 |
| 20260904230221 | 82 | 21 | 2.0 | 3.0 | 0.00 | 0.00 | 0.00 | 70 | 1011.4 |
| 20260904225720 | 82 | 43 | 2.0 | 2.0 | 0.00 | 0.00 | 0.00 | 71 | 1011.2 |
| 20260904225214 | 82 | 24 | 3.0 | 3.0 | 0.00 | 0.00 | 0.00 | 72 | 1011.3 |
| 20260904224713 | 82 | 69 | 3.0 | 3.0 | 0.00 | 0.00 | 0.00 | 71 | 1011.5 |
| 20260904224209 | 82 | 27 | 2.0 | 3.0 | 0.00 | 0.00 | 0.00 | 71 | 1011.4 |
| 20260904223708 | 82 | 69 | 5.0 | 7.0 | 0.00 | 0.00 | 0.00 | 71 | 1011.2 |
| 20260904223203 | 82 | 68 | 3.0 | 3.0 | 0.00 | 0.00 | 0.00 | 72 | 1011.2 |
| 20260904222659 | 82 | 12 | 3.0 | 5.0 | 0.00 | 0.00 | 0.00 | 71 | 1011.2 |
| 20260904222155 | 82 | 17 | 3.0 | 3.0 | 0.00 | 0.00 | 0.00 | 72 | 1011.2 |
| 20260904221654 | 82 | 46 | 2.0 | 2.0 | 0.00 | 0.00 | 0.00 | 73 | 1011.3 |
| 20260904221149 | 82 | 39 | 2.0 | 2.0 | 0.00 | 0.00 | 0.00 | 72 | 1011.1 |
| 20260904220643 | 83 | 230 | 1.0 | 1.0 | 0.00 | 0.00 | 0.00 | 74 | 1011.1 |
| 20260904220139 | 82 | 0 | 4.0 | 6.0 | 0.00 | 0.00 | 0.00 | 74 | 1011.3 |
| 20260904215633 | 82 | 213 | 0.0 | 1.0 | 0.00 | 0.00 | 0.00 | 72 | 1011.2 |
| 20260904215129 | 82 | 50 | 3.0 | 3.0 | 0.00 | 0.00 | 0.00 | 73 | 1011.1 |
| 20260904214629 | 82 | 11 | 3.0 | 3.0 | 0.00 | 0.00 | 0.00 | 73 | 1010.9 |
| 20260904214125 | 82 | 103 | 3.0 | 5.0 | 0.00 | 0.00 | 0.00 | 73 | 1011.3 |
| 20260904213623 | 82 | 230 | 0.0 | 0.0 | 0.00 | 0.00 | 0.00 | 73 | 1011.1 |
| 20260904213119 | 82 | 234 | 1.0 | 1.0 | 0.00 | 0.00 | 0.00 | 73 | 1011.2 |
| 20260904212614 | 82 | 21 | 3.0 | 5.0 | 0.00 | 0.00 | 0.00 | 72 | 1011.3 |
| 20260904212109 | 82 | 34 | 5.0 | 6.0 | 0.00 | 0.00 | 0.00 | 74 | 1011.3 |
| 20260904211608 | 81 | 19 | 3.0 | 3.0 | 0.00 | 0.00 | 0.00 | 73 | 1011.3 |
| 20260904211104 | 81 | 57 | 5.0 | 7.0 | 0.00 | 0.00 | 0.00 | 73 | 1011.2 |
| 20260904210604 | 81 | 291 | 1.0 | 2.0 | 0.00 | 0.00 | 0.00 | 73 | 1011.2 |
| 20260904210059 | 81 | 72 | 4.0 | 5.0 | 0.00 | 0.00 | 0.00 | 74 | 1011.3 |
| 20260904205555 | 81 | 39 | 1.0 | 1.0 | 0.00 | 0.00 | 0.00 | 75 | 1011.4 |
| 20260904205051 | 81 | 25 | 2.0 | 2.0 | 0.00 | 0.00 | 0.00 | 75 | 1011.4 |
| 20260904204547 | 81 | 40 | 3.0 | 5.0 | 0.00 | 0.00 | 0.00 | 75 | 1011.4 |
| 20260904204042 | 81 | 214 | 0.0 | 0.0 | 0.00 | 0.00 | 0.00 | 77 | 1011.3 |
| 20260904203538 | 81 | 92 | 1.0 | 1.0 | 0.00 | 0.00 | 0.00 | 81 | 1011.5 |
| 20260904203035 | 80 | 40 | 3.0 | 5.0 | 0.00 | 0.00 | 0.00 | 80 | 1011.5 |
| 20260904202530 | 80 | 34 | 3.0 | 3.0 | 0.00 | 0.00 | 0.00 | 79 | 1011.5 |
| 20260904202026 | 80 | 40 | 2.0 | 3.0 | 0.00 | 0.00 | 0.00 | 80 | 1011.2 |
| 20260904201521 | 80 | 6 | 2.0 | 2.0 | 0.00 | 0.00 | 0.00 | 80 | 1011.2 |
| 20260904201016 | 80 | 23 | 1.0 | 2.0 | 0.00 | 0.00 | 0.00 | 81 | 1011.4 |
| 20260904200514 | 80 | 50 | 5.0 | 6.0 | 0.00 | 0.00 | 0.00 | 79 | 1011.4 |
| 20260904200005 | 80 | 245 | 1.0 | 1.0 | 0.00 | 0.00 | 0.00 | 80 | 1011.6 |
| 20260904195503 | 80 | 227 | 2.0 | 3.0 | 0.00 | 0.00 | 0.00 | 80 | 1011.4 |
| 20260904195002 | 79 | 12 | 3.0 | 3.0 | 0.00 | 0.00 | 0.00 | 81 | 1011.4 |
| 20260904194457 | 79 | 325 | 1.0 | 1.0 | 0.00 | 0.00 | 0.00 | 83 | 1011.6 |
| 20260904193952 | 79 | 119 | 1.0 | 1.0 | 0.00 | 0.00 | 0.00 | 82 | 1011.5 |
| 20260904193447 | 78 | 337 | 3.0 | 3.0 | 0.00 | 0.00 | 0.00 | 82 | 1011.4 |
| 20260904192943 | 78 | 8 | 3.0 | 5.0 | 0.00 | 0.00 | 0.00 | 84 | 1011.5 |
| 20260904192437 | 78 | 37 | 2.0 | 3.0 | 0.00 | 0.00 | 0.00 | 82 | 1011.5 |
| 20260904191934 | 78 | 55 | 3.0 | 3.0 | 0.00 | 0.00 | 0.00 | 82 | 1011.5 |
| 20260904191430 | 78 | 78 | 3.0 | 3.0 | 0.00 | 0.00 | 0.00 | 83 | 1011.4 |
| 20260904190926 | 78 | 41 | 4.0 | 6.0 | 0.00 | 0.00 | 0.00 | 85 | 1011.7 |
| 20260904190421 | 77 | 44 | 3.0 | 3.0 | 0.00 | 0.00 | 0.00 | 85 | 1011.6 |
| 20260904185917 | 77 | 35 | 3.0 | 3.0 | 0.00 | 0.00 | 0.00 | 85 | 1011.6 |
| 20260904185413 | 77 | 53 | 3.0 | 5.0 | 0.00 | 0.00 | 0.00 | 85 | 1011.5 |
| 20260904184913 | 77 | 58 | 5.0 | 6.0 | 0.00 | 0.00 | 0.00 | 85 | 1011.8 |
| 20260904184408 | 76 | 22 | 1.0 | 2.0 | 0.00 | 0.00 | 0.00 | 86 | 1011.7 |
| 20260904183903 | 76 | 32 | 2.0 | 3.0 | 0.00 | 0.00 | 0.00 | 85 | 1011.7 |
| 20260904183358 | 76 | 24 | 4.0 | 5.0 | 0.00 | 0.00 | 0.00 | 86 | 1011.7 |
| 20260904182854 | 76 | 52 | 4.0 | 5.0 | 0.00 | 0.00 | 0.00 | 87 | 1011.5 |
| 20260904182348 | 76 | 46 | 3.0 | 5.0 | 0.00 | 0.00 | 0.00 | 87 | 1011.8 |
| 20260904181843 | 76 | 59 | 3.0 | 3.0 | 0.00 | 0.00 | 0.00 | 88 | 1011.7 |
| 20260904181338 | 75 | 58 | 3.0 | 3.0 | 0.00 | 0.00 | 0.00 | 88 | 1011.9 |
| 20260904180833 | 75 | 57 | 5.0 | 6.0 | 0.00 | 0.00 | 0.00 | 89 | 1011.8 |
| 20260904180329 | 75 | 34 | 3.0 | 5.0 | 0.00 | 0.00 | 0.00 | 89 | 1011.7 |
| 20260904175828 | 75 | 60 | 3.0 | 3.0 | 0.00 | 0.00 | 0.00 | 90 | 1011.7 |
| 20260904175326 | 75 | 61 | 5.0 | 6.0 | 0.00 | 0.00 | 0.00 | 90 | 1011.5 |
| 20260904174821 | 75 | 355 | 4.0 | 6.0 | 0.00 | 0.00 | 0.00 | 90 | 1011.7 |
| 20260904174317 | 75 | 42 | 3.0 | 5.0 | 0.00 | 0.00 | 0.00 | 90 | 1011.7 |
| 20260904173813 | 75 | 311 | 3.0 | 5.0 | 0.00 | 0.00 | 0.00 | 90 | 1011.5 |
| 20260904173308 | 75 | 38 | 3.0 | 3.0 | 0.00 | 0.00 | 0.00 | 90 | 1011.7 |
| 20260904172804 | 75 | 33 | 5.0 | 6.0 | 0.00 | 0.00 | 0.00 | 90 | 1011.6 |
| 20260904172305 | 75 | 59 | 3.0 | 6.0 | 0.00 | 0.00 | 0.00 | 90 | 1011.5 |
| 20260904171758 | 75 | 53 | 3.0 | 5.0 | 0.00 | 0.00 | 0.00 | 90 | 1011.7 |
| 20260904171253 | 75 | 34 | 2.0 | 3.0 | 0.00 | 0.00 | 0.00 | 90 | 1011.4 |
| 20260904170749 | 75 | 122 | 2.0 | 2.0 | 0.00 | 0.00 | 0.00 | 91 | 1011.5 |
| 20260904170245 | 74 | 41 | 4.0 | 6.0 | 0.00 | 0.00 | 0.00 | 91 | 1011.4 |
| 20260904165744 | 75 | 68 | 3.0 | 3.0 | 0.00 | 0.00 | 0.00 | 91 | 1011.4 |
| 20260904165238 | 74 | 342 | 1.0 | 2.0 | 0.00 | 0.00 | 0.00 | 91 | 1011.3 |
| 20260904164733 | 74 | 47 | 3.0 | 3.0 | 0.00 | 0.00 | 0.00 | 92 | 1011.3 |
| 20260904164228 | 74 | 17 | 3.0 | 3.0 | 0.00 | 0.00 | 0.00 | 92 | 1011.3 |
| 20260904163724 | 73 | 17 | 3.0 | 5.0 | 0.00 | 0.00 | 0.00 | 93 | 1011.3 |
| 20260904163219 | 73 | 352 | 4.0 | 6.0 | 0.00 | 0.00 | 0.00 | 94 | 1011.2 |
| 20260904162718 | 73 | 50 | 1.0 | 2.0 | 0.00 | 0.00 | 0.00 | 94 | 1011.1 |
| 20260904162213 | 72 | 83 | 2.0 | 2.0 | 0.00 | 0.00 | 0.00 | 95 | 1011.1 |
| 20260904161709 | 72 | 74 | 2.0 | 2.0 | 0.00 | 0.00 | 0.00 | 96 | 1011.1 |
| 20260904161203 | 71 | 61 | 3.0 | 3.0 | 0.00 | 0.00 | 0.00 | 97 | 1011.0 |
| 20260904160700 | 72 | 10 | 4.0 | 5.0 | 0.00 | 0.00 | 0.00 | 97 | 1010.9 |
| 20260904160155 | 71 | 39 | 2.0 | 2.0 | 0.00 | 0.00 | 0.00 | 98 | 1011.0 |
| 20260904155649 | 71 | 54 | 3.0 | 3.0 | 0.00 | 0.00 | 0.00 | 98 | 1010.8 |
| 20260904155149 | 71 | 342 | 1.0 | 1.0 | 0.00 | 0.00 | 0.00 | 98 | 1011.0 |
| 20260904154647 | 71 | 89 | 1.0 | 2.0 | 0.00 | 0.00 | 0.00 | 98 | 1010.9 |
| 20260904154142 | 71 | 354 | 4.0 | 5.0 | 0.00 | 0.00 | 0.00 | 99 | 1011.1 |
| 20260904153637 | 71 | 57 | 3.0 | 5.0 | 0.00 | 0.00 | 0.00 | 99 | 1010.7 |
| 20260904153132 | 71 | 336 | 1.0 | 2.0 | 0.00 | 0.00 | 0.00 | 99 | 1010.6 |
| 20260904152629 | 71 | 10 | 4.0 | 5.0 | 0.00 | 0.00 | 0.00 | 99 | 1010.7 |
| 20260904152124 | 71 | 30 | 3.0 | 3.0 | 0.00 | 0.00 | 0.00 | 99 | 1010.6 |
| 20260904151619 | 70 | 349 | 3.0 | 3.0 | 0.00 | 0.00 | 0.00 | 99 | 1010.7 |
| 20260904151118 | 71 | 294 | 3.0 | 3.0 | 0.00 | 0.00 | 0.00 | 99 | 1010.6 |
| 20260904150614 | 70 | 343 | 3.0 | 3.0 | 0.00 | 0.00 | 0.00 | 99 | 1010.5 |
| 20260904150109 | 70 | 276 | 2.0 | 2.0 | 0.00 | 0.00 | 0.00 | 99 | 1010.3 |
| 20260904145607 | 70 | 334 | 3.0 | 5.0 | 0.00 | 0.00 | 0.00 | 99 | 1010.3 |
| 20260904145102 | 70 | 303 | 1.0 | 1.0 | 0.00 | 0.00 | 0.00 | 99 | 1010.2 |
| 20260904144558 | 70 | 52 | 3.0 | 3.0 | 0.00 | 0.00 | 0.00 | 99 | 1010.3 |
| 20260904144054 | 70 | 269 | 1.0 | 1.0 | 0.00 | 0.00 | 0.00 | 99 | 1010.0 |
| 20260904143550 | 69 | 0 | 2.0 | 2.0 | 0.00 | 0.00 | 0.00 | 99 | 1010.2 |
| 20260904143046 | 69 | 217 | 1.0 | 1.0 | 0.00 | 0.00 | 0.00 | 99 | 1010.0 |
| 20260904142542 | 69 | 204 | 0.0 | 0.0 | 0.00 | 0.00 | 0.00 | 99 | 1010.1 |
| 20260904142037 | 69 | 203 | 0.0 | 0.0 | 0.00 | 0.00 | 0.00 | 99 | 1010.2 |
| 20260904141532 | 69 | 57 | 1.0 | 1.0 | 0.00 | 0.00 | 0.00 | 99 | 1010.1 |
| 20260904141028 | 69 | 307 | 2.0 | 2.0 | 0.00 | 0.00 | 0.00 | 99 | 1009.8 |
| 20260904140528 | 69 | 204 | 0.0 | 0.0 | 0.00 | 0.00 | 0.00 | 99 | 1009.5 |
| 20260904140022 | 69 | 215 | 0.0 | 0.0 | 0.00 | 0.00 | 0.00 | 99 | 1009.6 |
| 20260904135521 | 69 | 203 | 0.0 | 0.0 | 0.00 | 0.00 | 0.00 | 99 | 1009.6 |
| 20260904135018 | 68 | 209 | 0.0 | 0.0 | 0.00 | 0.00 | 0.00 | 99 | 1009.8 |
| 20260904134513 | 68 | 231 | 0.0 | 1.0 | 0.00 | 0.00 | 0.00 | 99 | 1009.9 |
| 20260904134007 | 68 | 150 | 1.0 | 1.0 | 0.00 | 0.00 | 0.00 | 99 | 1009.6 |
| 20260904133502 | 68 | 261 | 1.0 | 2.0 | 0.00 | 0.00 | 0.00 | 99 | 1009.8 |
| 20260904132958 | 68 | 147 | 1.0 | 1.0 | 0.00 | 0.00 | 0.00 | 99 | 1009.8 |
| 20260904132457 | 68 | 39 | 3.0 | 3.0 | 0.00 | 0.00 | 0.00 | 99 | 1009.6 |
| 20260904131952 | 68 | 147 | 1.0 | 1.0 | 0.00 | 0.00 | 0.00 | 99 | 1009.6 |
| 20260904131447 | 68 | 66 | 2.0 | 2.0 | 0.00 | 0.00 | 0.00 | 99 | 1009.5 |
| 20260904130943 | 68 | 208 | 0.0 | 0.0 | 0.00 | 0.00 | 0.00 | 99 | 1009.6 |
| 20260904130442 | 68 | 166 | 1.0 | 1.0 | 0.00 | 0.00 | 0.00 | 99 | 1009.9 |
| 20260904125937 | 68 | 357 | 1.0 | 2.0 | 0.00 | 0.00 | 0.00 | 99 | 1009.6 |
| 20260904125433 | 69 | 271 | 1.0 | 2.0 | 0.00 | 0.00 | 0.00 | 99 | 1009.6 |
| 20260904124933 | 69 | 234 | 1.0 | 2.0 | 0.00 | 0.00 | 0.00 | 99 | 1009.8 |
| 20260904124429 | 69 | 54 | 2.0 | 2.0 | 0.00 | 0.00 | 0.00 | 99 | 1009.4 |
| 20260904123925 | 69 | 38 | 2.0 | 2.0 | 0.00 | 0.00 | 0.00 | 99 | 1009.3 |
| 20260904123424 | 69 | 264 | 1.0 | 2.0 | 0.00 | 0.00 | 0.00 | 99 | 1009.4 |
| 20260904122920 | 69 | 344 | 1.0 | 2.0 | 0.00 | 0.00 | 0.00 | 99 | 1009.1 |
| 20260904122419 | 70 | 215 | 1.0 | 1.0 | 0.00 | 0.00 | 0.00 | 99 | 1009.0 |
| 20260904121914 | 70 | 190 | 1.0 | 1.0 | 0.00 | 0.00 | 0.00 | 99 | 1009.1 |
| 20260904121411 | 70 | 268 | 1.0 | 2.0 | 0.00 | 0.00 | 0.00 | 99 | 1009.1 |
| 20260904120907 | 70 | 64 | 1.0 | 2.0 | 0.00 | 0.00 | 0.00 | 99 | 1008.9 |
| 20260904120403 | 70 | 267 | 1.0 | 1.0 | 0.00 | 0.00 | 0.00 | 99 | 1009.0 |
| 20260904115858 | 70 | 60 | 2.0 | 2.0 | 0.00 | 0.00 | 0.00 | 99 | 1009.0 |
| 20260904115352 | 70 | 149 | 1.0 | 1.0 | 0.00 | 0.00 | 0.00 | 99 | 1008.8 |
| 20260904114847 | 71 | 245 | 1.0 | 1.0 | 0.00 | 0.00 | 0.00 | 99 | 1008.9 |
| 20260904114342 | 71 | 307 | 2.0 | 2.0 | 0.00 | 0.00 | 0.00 | 99 | 1008.8 |
| 20260904113837 | 71 | 181 | 0.0 | 1.0 | 0.00 | 0.00 | 0.00 | 99 | 1008.8 |
| 20260904113337 | 71 | 150 | 1.0 | 1.0 | 0.00 | 0.00 | 0.00 | 99 | 1008.4 |
| 20260904112832 | 71 | 212 | 0.0 | 0.0 | 0.00 | 0.00 | 0.00 | 99 | 1008.4 |